Regional Weather Roundup
Issued by NWS Sioux Falls, SD

Home | Current Version | Previous Version | Text Only | Print | Product List | Glossary Off
Versions: 1 2 3 4 5 6 7 8 9 10 11 12 13 14 15 16 17 18 19 20 21 22 23 24 25 26 27 28 29 30 31 32 33 34 35 36 37 38 39 40 41 42 43 44 45 46 47 48 49 50

000
ASUS43 KFSD 170110
RWRFSD

WEATHER ROUNDUP FOR SE SOUTH DAKOTA/SW MINNESOTA/NW IOWA
NATIONAL WEATHER SERVICE SIOUX FALLS SD
800 PM CDT MON OCT 16 2017

NOTE: "FAIR" INDICATES FEW OR NO CLOUDS BELOW 12,000 FEET WITH NO
SIGNIFICANT WEATHER AND OR OBSTRUCTIONS TO VISIBILITY.


SDZ038>040-050-052>070-170200-
SOUTHEAST SOUTH DAKOTA

CITY           SKY/WX    TMP DP  RH WIND       PRES   REMARKS
BROOKINGS      CLOUDY    54  40  59 SW6       29.99S
CHAMBERLAIN    CLEAR     55  42  61 CALM      30.02S
HURON          CLOUDY    55  42  61 S5        29.99R
MADISON        FAIR      57  41  54 W8        30.00S
MITCHELL       CLOUDY    59  41  51 CALM      30.01R
SIOUX FALLS    PTCLDY    63  41  44 SW3       30.01R
WINNER         FAIR      69  34  27 CALM      30.04R
YANKTON        CLEAR     64  39  39 S5        30.02R
$$

MNZ071-072-080-081-089-090-097-098-170200-
SOUTHWEST MINNESOTA

CITY           SKY/WX    TMP DP  RH WIND       PRES   REMARKS
FAIRMONT       CLOUDY    56  40  55 S10       30.04S
JACKSON        CLOUDY    55  37  50 S8        30.03F
LUVERNE        CLOUDY    54  36  50 CALM      30.02R
MARSHALL       CLOUDY    58  39  49 SW8       29.96F
MONTEVIDEO     CLOUDY    55  34  44 SW6       29.95S
PIPESTONE      CLOUDY    55  39  54 SW5       30.00S
REDWOOD FALLS  CLOUDY    58  38  47 S10       29.97S
TRACY          CLOUDY    63  40  43 SW12G17   29.97F
WORTHINGTON    CLOUDY    58  38  47 S7        30.03S
$$

IAZ001>003-012>014-020>022-031-032-NEZ013-014-SDZ071-170200-
NORTHWEST IOWA

CITY           SKY/WX    TMP DP  RH WIND       PRES   REMARKS
CHEROKEE       CLOUDY    58  40  51 S8        30.06R
DENISON        CLEAR     61  39  44 S10G17    30.10F
ESTHERVILLE    CLEAR     54  39  57 S8        30.04S
LE MARS        CLOUDY    57  41  54 S8        30.04S
ORANGE CITY    CLEAR     59  43  55 S7        30.04S
SHELDON        CLEAR     57  39  51 S7        30.02S
SIOUX CITY     CLEAR     62  39  42 S7        30.05S
SPENCER        CLEAR     58  38  47 S9        30.05S
STORM LAKE     CLEAR     57  37  47 S9        30.08R
$$

ABBREVIATIONS USED IN REMARKS
   TC - TEMPERATURE IN CELSIUS
  WCI - WIND CHILL INDEX
   HX - HEAT INDEX
  VSB - VISIBILITY





USA.gov is the U.S. government's official web portal to all federal, state and local government web resources and services.